Cairns, Queensland

2:32 PM AEST on September 27, 2016 (GMT +1000)
Cairns International

Weather History for YBCS - May, 2013

Change the Weather History Date:

Sunday, May 19, 2013

  Actual Average Record
Temperature  
Mean Temperature 76 °F -  
Max Temperature 78 °F 80 °F 86 °F (2016)
Min Temperature 73 °F 65 °F 59 °F (2001)
Cooling Degree Days 10    
Growing Degree Days 26 (Base 50)    
Moisture  
Dew Point 70 °F    
Average Humidity 81    
Maximum Humidity 94    
Minimum Humidity 67    
Precipitation  
Precipitation 0.00 in - - ()
Sea Level Pressure  
Sea Level Pressure 29.98 in    
Wind  
Wind Speed 11 mph ()    
Max Wind Speed 21 mph    
Max Gust Speed -    
Visibility 7.2 miles    
Events Rain    
Averages and records for this station are not official NWS values.
T = Trace of Precipitation, MM = Missing Value Source: Averaged Metar Reports

Daily Weather History Graph

Daily Weather History Graph

Search for Another Location

Airport or City:

Trip Planner

Search our weather history database for the weather conditions in past years. The results will help you decide how hot, cold, wet, or windy it might be!

Date:

Astronomy

May. 19, 2013 Rise Set
Actual Time 6:34 AM AEST 5:52 PM AEST
Civil Twilight 6:11 AM AEST 6:15 PM AEST
Nautical Twilight 5:45 AM AEST 6:41 PM AEST
Astronomical Twilight 5:19 AM AEST 7:07 PM AEST
Moon 1:10 PM AEST (5/19) 12:34 AM AEST (5/19)
Length of Visible Light 12h 03m
Length of Day
11h 17m
First Quarter, 59% of the Moon is Illuminated
May 19
First Quarter
May 25
Full
Jun 1
Last Quarter
Jun 9
New
Jun 17
First Quarter

Hourly Weather History & Observations

Time (AEST) Temp. Dew Point Humidity Pressure Visibility Wind Dir Wind Speed Gust Speed Precip Events Conditions
12:00 AM 74 °F 71 °F 88% 29.99 in - South 9.2 mph - -  
12:00 AM 73.4 °F 71.6 °F 94% 29.98 in 6.2 mi South 9.2 mph - N/A Rain Light Rain Showers
12:30 AM 73.4 °F 71.6 °F 94% 29.98 in 6.2 mi South 10.4 mph - N/A   Scattered Clouds
1:00 AM 74 °F 71 °F 86% 29.99 in - South 9.2 mph - -  
1:00 AM 73.4 °F 71.6 °F 94% 29.98 in 6.2 mi South 9.2 mph - N/A   Mostly Cloudy
1:30 AM 73.4 °F 71.6 °F 94% 29.98 in 6.2 mi South 11.5 mph - N/A   Mostly Cloudy
2:00 AM 73.4 °F 69.8 °F 88% 29.95 in 6.2 mi South 10.4 mph - N/A   Mostly Cloudy
2:30 AM 73.4 °F 69.8 °F 88% 29.95 in 6.2 mi South 11.5 mph - N/A   Mostly Cloudy
3:00 AM 74 °F 71 °F 87% 29.96 in - South 10.4 mph - -   Overcast
3:00 AM 73.4 °F 71.6 °F 94% 29.95 in 6.2 mi South 10.4 mph - N/A   Mostly Cloudy
3:30 AM 73.4 °F 71.6 °F 94% 29.95 in 6.2 mi SSE 9.2 mph - N/A   Mostly Cloudy
4:00 AM 74 °F 71 °F 88% 29.97 in - South 9.2 mph - -  
4:00 AM 73.4 °F 71.6 °F 94% 29.95 in 6.2 mi South 9.2 mph - N/A   Scattered Clouds
4:30 AM 75.2 °F 71.6 °F 89% 29.95 in 6.2 mi SSE 9.2 mph - N/A   Scattered Clouds
5:00 AM 75.2 °F 71.6 °F 89% 29.95 in 6.2 mi South 11.5 mph - N/A   Scattered Clouds
5:30 AM 73.4 °F 69.8 °F 88% 29.95 in 6.2 mi South 10.4 mph - N/A   Scattered Clouds
6:00 AM 74 °F 70 °F 84% 29.98 in 19 mi SSE 15.0 mph - -   Partly Cloudy
6:00 AM 73.4 °F 69.8 °F 88% 29.98 in 6.2 mi SSE 15.0 mph - N/A   Scattered Clouds
6:30 AM 73.4 °F 69.8 °F 88% 29.98 in 6.2 mi SSE 13.8 mph - N/A   Mostly Cloudy
7:00 AM 74 °F 70 °F 82% 30.00 in - SSE 12.7 mph - -  
7:00 AM 75.2 °F 69.8 °F 83% 29.98 in 6.2 mi SSE 12.7 mph - N/A   Mostly Cloudy
7:16 AM 75.2 °F 69.8 °F 83% 29.98 in 6.2 mi South 10.4 mph - N/A   Mostly Cloudy
7:30 AM 75.2 °F 69.8 °F 83% 30.01 in 6.2 mi South 11.5 mph - N/A   Mostly Cloudy
8:00 AM 75.2 °F 69.8 °F 83% 30.01 in 6.2 mi South 13.8 mph - N/A   Mostly Cloudy
8:30 AM 75.2 °F 69.8 °F 83% 30.01 in 6.2 mi SSE 13.8 mph - N/A   Mostly Cloudy
9:00 AM 75 °F 69 °F 78% 30.04 in 19 mi SSE 11.5 mph - -   Overcast
9:00 AM 75.2 °F 69.8 °F 83% 30.04 in 6.2 mi SSE 11.5 mph - N/A   Mostly Cloudy
9:30 AM 75.2 °F 69.8 °F 83% 30.04 in 6.2 mi South 10.4 mph - N/A   Mostly Cloudy
10:00 AM 75 °F 69 °F 76% 30.05 in - South 13.8 mph - -  
10:00 AM 75.2 °F 69.8 °F 83% 30.04 in 6.2 mi South 13.8 mph - N/A   Mostly Cloudy
10:30 AM 77.0 °F 69.8 °F 78% 30.04 in 6.2 mi SSE 13.8 mph - N/A   Mostly Cloudy
11:00 AM 78.8 °F 69.8 °F 74% 30.01 in 6.2 mi SSE 13.8 mph - N/A   Mostly Cloudy
11:30 AM 77.0 °F 69.8 °F 78% 30.01 in 6.2 mi SSE 15.0 mph - N/A   Mostly Cloudy
12:00 PM 78 °F 70 °F 69% 30.01 in 19 mi SSE 12.7 mph - -   Partly Cloudy
12:00 PM 78.8 °F 69.8 °F 74% 30.01 in 6.2 mi SSE 12.7 mph - N/A   Mostly Cloudy
12:30 PM 78.8 °F 69.8 °F 74% 29.98 in 6.2 mi SSE 12.7 mph - N/A   Mostly Cloudy
1:00 PM 78 °F 69 °F 67% 29.99 in - SSE 17.3 mph - -  
1:00 PM 78.8 °F 69.8 °F 74% 29.98 in 6.2 mi SSE 17.3 mph - N/A   Mostly Cloudy
1:30 PM 78.8 °F 68.0 °F 69% 29.98 in 6.2 mi SSE 17.3 mph - N/A   Mostly Cloudy
2:00 PM 78.8 °F 69.8 °F 74% 29.95 in 6.2 mi SSE 19.6 mph - N/A   Mostly Cloudy
2:30 PM 78.8 °F 69.8 °F 74% 29.95 in 6.2 mi SSE 17.3 mph - N/A   Mostly Cloudy
3:00 PM 78 °F 70 °F 69% 29.95 in 19 mi SSE 20.7 mph - -   Mostly Cloudy
3:00 PM 78.8 °F 69.8 °F 74% 29.95 in 6.2 mi SSE 20.7 mph - N/A   Mostly Cloudy
3:30 PM 77.0 °F 69.8 °F 78% 29.95 in 6.2 mi SE 17.3 mph - N/A   Mostly Cloudy
4:00 PM 78 °F 70 °F 71% 29.95 in - SSE 17.3 mph - -  
4:00 PM 78.8 °F 69.8 °F 74% 29.92 in 6.2 mi SSE 17.3 mph - N/A   Mostly Cloudy
4:30 PM 77.0 °F 69.8 °F 78% 29.95 in 6.2 mi SSE 18.4 mph - N/A   Mostly Cloudy
5:00 PM 77.0 °F 69.8 °F 78% 29.95 in 6.2 mi SE 15.0 mph - N/A   Mostly Cloudy
5:30 PM 75.2 °F 69.8 °F 83% 29.95 in 6.2 mi South 11.5 mph - N/A   Mostly Cloudy
6:00 PM 75 °F 69 °F 77% 29.96 in - SSE 12.7 mph - -   Overcast
6:00 PM 75.2 °F 69.8 °F 83% 29.95 in 6.2 mi SSE 12.7 mph - N/A   Mostly Cloudy
6:30 PM 75.2 °F 69.8 °F 83% 29.95 in 6.2 mi SSE 10.4 mph - N/A   Mostly Cloudy
7:00 PM 75 °F 68 °F 74% 29.98 in - South 9.2 mph - -  
7:00 PM 75.2 °F 68.0 °F 78% 29.98 in 6.2 mi South 9.2 mph - N/A   Mostly Cloudy
7:30 PM 75.2 °F 68.0 °F 78% 29.98 in 6.2 mi South 9.2 mph - N/A   Mostly Cloudy
8:00 PM 75.2 °F 68.0 °F 78% 29.98 in 6.2 mi South 9.2 mph - N/A   Mostly Cloudy
8:30 PM 75.2 °F 68.0 °F 78% 30.01 in 6.2 mi South 10.4 mph - N/A   Mostly Cloudy
9:00 PM 74 °F 68 °F 77% 30.01 in - South 9.2 mph - -   Overcast
9:00 PM 73.4 °F 68.0 °F 83% 30.01 in 6.2 mi South 9.2 mph - N/A   Mostly Cloudy
9:30 PM 73.4 °F 68.0 °F 83% 30.01 in 6.2 mi South 10.4 mph - N/A   Mostly Cloudy
10:00 PM 74 °F 68 °F 76% 30.01 in - South 11.5 mph - -  
10:00 PM 73.4 °F 68.0 °F 83% 30.01 in 6.2 mi South 11.5 mph - N/A   Mostly Cloudy
10:30 PM 73.4 °F 68.0 °F 83% 30.01 in 6.2 mi South 10.4 mph - N/A   Mostly Cloudy
11:00 PM 73.4 °F 68.0 °F 83% 30.01 in 6.2 mi South 11.5 mph - N/A   Mostly Cloudy
11:30 PM 73.4 °F 66.2 °F 78% 29.98 in 6.2 mi South 11.5 mph - N/A   Mostly Cloudy